Погода в Чумляке

Россия / Курганская область     55°18′22″N   62°40′46″E
темп.,
°C
ветер,
м/с
пор.,
м/с
влажн.,
%
обл.,
%
осадки,
мм/ч
давл.,
гПа
погр.,
м
25 января, вт
вт2523:00−10зюз3590100 0.0 1035112
02:00−11зюз3294100 0.0 103433
05:00−15зюз2397100 0.0 103338
08:00−13зюз3596100 0.0 103270
11:00−11зюз3690100 0.0 1031121
14:00−8зюз3887100 0.0 1029225
17:00−10зюз3787100 0.0 102993
20:00−13з3688100 0.0 102969
26 января, ср
ср2623:00−13з3788100 0.0 102981
02:00−16з359039 0.0 102945
05:00−20зюз22965 0.0 102915
08:00−21юз22975 0.0 102916
11:00−15ююз249010 0.0 102970
14:00−11ю378545 0.0 1027176
17:00−15ююв368664 0.0 102869
20:00−16ю489291 0.0 1027100
27 января, чт
чт2723:00−13ю41291100 0.0 1026166
02:00−12ю51381100 0.0 1025221
05:00−13ююз51483100 0.0 1025239
08:00−11ююз51391100 0.0 1024243
11:00−10ююз41093100 0.0 1025244
14:00−7ююз4893100 0.0 1024272
17:00−6ююз3894100 0.0 1025235
20:00−7ююз3796100 0.0 1025178
28 января, пт
пт2823:00−9ю239895 0.0 102541
02:00−14ююз2210099 0.0 102512
05:00−16ююз22100100 0.0 102613
08:00−17ююз22100100 0.0 10269
11:00−9ю2397100 0.1 102584
14:00−5ююв2494100 0.1 1024240
17:00−8ююв3594100 0.1 102484
20:00−12ююв3495100 0.0 102454
29 января, сб
сб2923:00−12ююв2593100 0.0 102375
02:00−13юв2493100 0.0 102356
05:00−15вюв2292100 0.0 102132
08:00−16вюв2292100 0.0 102022
11:00−12юв3786100 0.0 1019169
14:00−10юв3684100 0.0 1017203
17:00−12в2293100 0.0 101611
20:00−16юв229695 0.0 101524